Total_Precipitation_Accumulation
0.00 0.00 0.00 0.00 0.00 0.00 0.00 0.00 0.00 0.00 0.00 0.00 0.00 0.00 0.00 0.00 0.11 0.11 0.62 1.46 1.83 1.07 0.94 0.79 0.65 0.17 0.11 0.27 0.08 0.00 0.00 0.00 0.00 0.00 0.00 0.00 0.00 0.00 0.00 0.00 0.01 0.00 0.01 0.00 0.00 0.00 0.01 0.01 0.01
0.00 0.00 0.00 0.00 0.00 0.00 0.00 0.00 0.00 0.00 0.00 0.02 0.01 0.00 0.00 0.01 0.27 0.24 0.37 0.80 1.32 0.83 1.15 0.88 1.02 1.07 0.47 0.35 0.15 0.06 0.02 0.01 0.00 0.00 0.00 0.00 0.00 0.00 0.00 0.00 0.01 0.00 0.00 0.00 0.00 0.00 0.01 0.00 0.00
0.00 0.00 0.00 0.00 0.00 0.00 0.00 0.00 0.00 0.00 0.00 0.00 0.00 0.01 0.02 0.06 0.03 0.03 0.03 0.05 0.72 0.74 0.45 0.88 0.91 0.79 0.67 0.36 0.18 0.25 0.22 0.15 0.00 0.00 0.00 0.00 0.00 0.00 0.00 0.00 0.00 0.00 0.00 0.00 0.00 0.00 0.00 0.00 0.00
0.00 0.00 0.00 0.00 0.00 0.00 0.00 0.00 0.00 0.00 0.06 0.11 0.05 0.39 0.10 0.19 0.07 0.04 0.10 0.09 0.58 0.56 0.93 1.76 1.35 0.97 0.66 0.53 0.57 0.63 0.53 0.25 0.01 0.00 0.00 0.00 0.00 0.00 0.00 0.00 0.00 0.01 0.01 0.00 0.00 0.00 0.00 0.00 0.00
0.00 0.00 0.00 0.00 0.00 0.00 0.00 0.00 0.01 0.02 0.10 0.41 0.17 0.51 0.47 0.06 0.05 0.08 0.21 0.33 0.70 0.78 1.09 2.19 3.29 2.73 2.39 1.63 1.13 0.94 0.90 0.49 0.05 0.00 0.00 0.00 0.00 0.00 0.00 0.01 0.01 0.01 0.01 0.00 0.00 0.00 0.00 0.00 0.00
0.00 0.00 0.00 0.00 0.00 0.00 0.00 0.00 0.00 0.00 0.03 0.12 0.28 0.49 0.43 0.03 0.12 0.18 0.34 0.77 1.25 1.64 1.87 3.46 5.03 4.11 3.29 2.75 2.01 2.07 1.63 0.86 0.22 0.02 0.01 0.00 0.00 0.00 0.00 0.00 0.00 0.00 0.00 0.00 0.00 0.00 0.00 0.00 0.00
0.00 0.00 0.00 0.00 0.00 0.00 0.00 0.00 0.00 0.00 0.01 0.11 0.20 0.19 0.78 0.43 0.40 0.51 0.28 0.59 0.82 1.44 2.12 3.55 5.39 6.23 5.88 3.60 3.14 3.19 2.98 1.47 0.45 0.12 0.03 0.00 0.00 0.00 0.00 0.00 0.00 0.00 0.00 0.00 0.00 0.00 0.00 0.00 0.00
0.00 0.00 0.00 0.00 0.00 0.00 0.00 0.01 0.01 0.01 0.03 0.04 0.09 0.71 1.12 0.78 0.30 0.24 0.34 0.71 0.55 0.53 0.82 0.71 1.27 4.40 10.14 7.23 4.68 3.88 3.12 2.20 0.77 0.19 0.04 0.00 0.00 0.00 0.00 0.00 0.00 0.00 0.00 0.00 0.00 0.00 0.00 0.00 0.00
0.00 0.00 0.00 0.00 0.00 0.00 0.00 0.00 0.07 0.06 0.00 0.02 0.20 0.90 0.29 0.07 0.07 0.12 0.22 0.50 0.68 0.51 0.55 0.33 0.22 1.01 4.63 8.80 6.09 4.95 3.80 1.90 1.25 0.28 0.03 0.00 0.01 0.01 0.00 0.00 0.00 0.00 0.00 0.00 0.00 0.00 0.00 0.00 0.00
0.00 0.00 0.00 0.00 0.00 0.00 0.00 0.00 0.06 0.05 0.02 0.13 0.45 0.69 0.08 0.03 0.05 0.07 0.07 0.13 0.17 0.36 0.44 0.32 0.19 0.39 1.09 3.85 3.82 4.30 4.36 2.29 1.24 0.38 0.06 0.02 0.01 0.00 0.01 0.00 0.00 0.00 0.00 0.00 0.00 0.00 0.00 0.00 0.00
0.00 0.00 0.00 0.00 0.00 0.00 0.00 0.00 0.00 0.00 0.03 0.35 0.16 0.22 0.02 0.05 0.02 0.03 0.04 0.08 0.23 0.34 0.36 0.29 0.18 0.19 0.70 1.92 1.67 2.14 2.96 3.08 1.67 0.66 0.11 0.05 0.02 0.03 0.03 0.00 0.00 0.00 0.00 0.00 0.00 0.00 0.00 0.00 0.00
0.00 0.00 0.00 0.00 0.00 0.00 0.00 0.00 0.00 0.00 0.04 0.11 0.15 0.09 0.03 0.01 0.04 0.04 0.04 0.08 0.14 0.25 0.30 0.26 0.16 0.31 0.69 0.78 1.01 1.27 1.28 2.54 1.97 0.96 0.31 0.10 0.05 0.02 0.01 0.00 0.00 0.00 0.00 0.00 0.00 0.00 0.00 0.00 0.00
0.00 0.00 0.00 0.00 0.00 0.00 0.00 0.00 0.00 0.00 0.05 0.09 0.19 0.12 0.07 0.01 0.03 0.04 0.06 0.12 0.18 0.23 0.34 0.31 0.30 0.32 0.32 0.21 0.37 1.04 0.79 1.33 1.30 0.74 0.38 0.19 0.04 0.00 0.00 0.00 0.00 0.00 0.00 0.00 0.00 0.00 0.00 0.00 0.00
0.00 0.00 0.00 0.00 0.00 0.00 0.00 0.00 0.00 0.02 0.04 0.23 0.80 0.22 0.04 0.00 0.01 0.02 0.05 0.14 0.39 0.29 0.48 0.29 0.24 0.30 0.31 0.23 0.32 0.80 0.76 0.78 0.77 0.35 0.19 0.16 0.06 0.01 0.00 0.00 0.00 0.00 0.00 0.00 0.00 0.00 0.00 0.00 0.00
0.00 0.00 0.00 0.03 0.02 0.00 0.00 0.00 0.01 0.09 0.17 0.33 0.27 0.11 0.01 0.00 0.01 0.03 0.03 0.05 0.19 0.42 0.47 0.29 0.33 0.32 0.40 0.28 0.45 0.63 0.72 0.71 0.56 0.20 0.11 0.08 0.05 0.01 0.01 0.00 0.00 0.00 0.00 0.00 0.00 0.00 0.00 0.00 0.00
0.00 0.00 0.00 0.01 0.00 0.00 0.00 0.01 0.18 0.29 0.10 0.26 0.35 0.07 0.02 0.00 0.01 0.03 0.03 0.02 0.08 0.16 0.39 0.35 0.24 0.19 0.20 0.14 0.38 0.54 0.59 0.63 0.56 0.18 0.08 0.03 0.04 0.02 0.01 0.00 0.00 0.00 0.00 0.00 0.00 0.00 0.00 0.00 0.00
0.00 0.00 0.00 0.00 0.00 0.00 0.00 0.00 0.02 0.14 0.25 0.35 0.26 0.03 0.00 0.00 0.01 0.02 0.02 0.01 0.05 0.16 0.25 0.26 0.19 0.13 0.19 0.15 0.44 0.43 0.45 0.52 0.44 0.19 0.06 0.04 0.03 0.01 0.01 0.01 0.00 0.00 0.00 0.00 0.00 0.00 0.00 0.00 0.00
0.00 0.00 0.00 0.00 0.00 0.00 0.00 0.00 0.00 0.02 0.06 0.05 0.05 0.02 0.01 0.00 0.00 0.00 0.00 0.01 0.02 0.03 0.09 0.13 0.23 0.18 0.35 0.19 0.34 0.37 0.45 0.51 0.33 0.20 0.07 0.04 0.03 0.03 0.03 0.01 0.00 0.00 0.00 0.00 0.00 0.00 0.00 0.00 0.00
0.00 0.00 0.00 0.00 0.00 0.00 0.00 0.00 0.00 0.00 0.01 0.02 0.03 0.03 0.01 0.00 0.00 0.00 0.00 0.01 0.01 0.01 0.02 0.02 0.09 0.12 0.27 0.16 0.25 0.28 0.36 0.48 0.41 0.23 0.09 0.07 0.04 0.02 0.04 0.01 0.00 0.00 0.00 0.00 0.00 0.00 0.00 0.00 0.00
0.00 0.00 0.00 0.00 0.00 0.00 0.00 0.00 0.00 0.00 0.00 0.00 0.01 0.01 0.00 0.00 0.00 0.00 0.00 0.01 0.01 0.01 0.01 0.01 0.01 0.03 0.08 0.09 0.12 0.13 0.15 0.28 0.28 0.20 0.08 0.06 0.02 0.01 0.05 0.01 0.01 0.00 0.00 0.00 0.00 0.00 0.00 0.00 0.00
0.00 0.00 0.00 0.00 0.00 0.00 0.00 0.00 0.00 0.00 0.00 0.00 0.00 0.00 0.00 0.00 0.00 0.00 0.00 0.00 0.00 0.01 0.01 0.01 0.00 0.00 0.02 0.04 0.05 0.11 0.06 0.08 0.11 0.13 0.09 0.05 0.04 0.06 0.06 0.05 0.01 0.02 0.01 0.00 0.00 0.00 0.00 0.00 0.00
0.00 0.00 0.00 0.00 0.00 0.01 0.00 0.00 0.00 0.00 0.00 0.00 0.00 0.00 0.00 0.00 0.00 0.00 0.00 0.00 0.00 0.00 0.00 0.00 0.00 0.00 0.00 0.00 0.01 0.03 0.02 0.01 0.01 0.01 0.03 0.03 0.02 0.02 0.02 0.03 0.01 0.02 0.01 0.01 0.01 0.02 0.02 0.02 0.02
0.00 0.00 0.00 0.00 0.00 0.00 0.01 0.00 0.00 0.00 0.00 0.00 0.00 0.00 0.00 0.00 0.00 0.00 0.00 0.00 0.00 0.00 0.01 0.00 0.00 0.00 0.00 0.00 0.00 0.01 0.00 0.00 0.00 0.00 0.01 0.02 0.01 0.02 0.03 0.04 0.04 0.02 0.03 0.04 0.06 0.05 0.08 0.09 0.07
0.00 0.00 0.00 0.00 0.00 0.00 0.00 0.00 0.00 0.00 0.00 0.00 0.00 0.00 0.00 0.00 0.00 0.00 0.00 0.00 0.00 0.00 0.00 0.01 0.00 0.00 0.00 0.01 0.00 0.03 0.06 0.00 0.00 0.06 0.08 0.01 0.05 0.05 0.06 0.06 0.07 0.04 0.04 0.10 0.15 0.17 0.14 0.09 0.08
0.00 0.00 0.00 0.02 0.00 0.00 0.01 0.00 0.00 0.00 0.00 0.00 0.00 0.00 0.00 0.00 0.00 0.00 0.00 0.00 0.00 0.00 0.00 0.00 0.00 0.00 0.00 0.00 0.08 0.03 0.04 0.02 0.00 0.05 0.03 0.02 0.10 0.13 0.06 0.07 0.06 0.03 0.06 0.09 0.13 0.14 0.13 0.15 0.25
0.00 0.00 0.02 0.04 0.02 0.02 0.03 0.00 0.00 0.00 0.00 0.00 0.00 0.00 0.00 0.00 0.00 0.00 0.01 0.01 0.01 0.00 0.00 0.00 0.00 0.00 0.00 0.00 0.02 0.06 0.00 0.02 0.04 0.02 0.06 0.05 0.05 0.08 0.24 0.09 0.06 0.13 0.12 0.20 0.30 0.28 0.29 0.38 0.52
0.00 0.00 0.00 0.00 0.00 0.01 0.00 0.00 0.00 0.00 0.00 0.00 0.00 0.00 0.00 0.00 0.00 0.00 0.01 0.01 0.02 0.02 0.01 0.00 0.00 0.00 0.00 0.00 0.00 0.02 0.05 0.02 0.06 0.07 0.05 0.19 0.17 0.09 0.12 0.17 0.18 0.25 0.27 0.31 0.38 0.46 0.54 0.59 0.63
0.00 0.00 0.00 0.00 0.00 0.01 0.00 0.00 0.00 0.00 0.00 0.00 0.00 0.00 0.00 0.00 0.00 0.00 0.00 0.00 0.03 0.04 0.08 0.09 0.05 0.03 0.01 0.00 0.00 0.00 0.04 0.08 0.07 0.13 0.30 0.44 0.30 0.22 0.26 0.36 0.43 0.52 0.61 0.60 0.60 0.67 0.73 0.70 0.64
0.00 0.00 0.00 0.00 0.00 0.00 0.00 0.00 0.00 0.00 0.00 0.00 0.00 0.00 0.00 0.00 0.00 0.00 0.00 0.00 0.01 0.05 0.10 0.16 0.17 0.12 0.12 0.10 0.06 0.02 0.02 0.11 0.24 0.27 0.64 0.51 0.47 0.63 0.86 1.00 1.05 0.95 0.83 0.82 0.91 0.92 0.87 0.73 0.53
0.00 0.00 0.00 0.00 0.00 0.00 0.00 0.00 0.00 0.00 0.00 0.00 0.00 0.00 0.00 0.00 0.00 0.00 0.00 0.01 0.03 0.06 0.08 0.06 0.22 0.42 0.26 0.21 0.21 0.16 0.28 0.51 0.78 0.77 0.95 1.19 1.40 1.30 1.28 1.00 0.75 0.62 0.58 0.59 0.68 0.63 0.54 0.44 0.27